Regional Weather Roundup
Issued by NWS

Home | Current Version | Previous Version | Graphics & Text | Print | Product List | Glossary On
Versions: 1 2 3 4 5 6 7 8 9 10 11 12 13 14 15 16 17 18 19 20 21 22 23 24 25 26 27 28 29 30 31 32 33 34 35 36 37 38 39 40 41 42 43 44 45 46 47 48 49 50
111
ASUS43 KBIS 010410
RWRND

NORTH DAKOTA REGIONAL WEATHER ROUNDUP
NATIONAL WEATHER SERVICE BISMARCK ND
1100 PM CDT FRI SEP 30 2016

NOTE: "FAIR" INDICATES FEW OR NO CLOUDS BELOW 12,000 FEET WITH NO
SIGNIFICANT WEATHER AND/OR OBSTRUCTIONS TO VISIBILITY.


NDZ001>003-009>011-017-010500-
NORTHWEST NORTH DAKOTA

CITY           SKY/WX    TMP DP  RH WIND       PRES   REMARKS
WILLISTON      CLEAR     60  49  66 SE6       29.98F
MINOT          CLEAR     57  49  74 SE10      30.05S
MINOT AFB      CLEAR     56  49  76 SE12      30.03F
$$

NDZ018>021-031>035-040>046-010500-
SOUTHWEST NORTH DAKOTA

CITY           SKY/WX    TMP DP  RH WIND       PRES   REMARKS
BISMARCK       CLOUDY    62  45  53 SE9       30.07R
DICKINSON      CLEAR     55  46  71 SE10      30.00S
GARRISON         N/A     55  50  83 E6        30.04F
HETTINGER ARPT CLEAR     57  46  66 E7        30.03S
$$

NDZ004>008-012>016-024-026-027-054-010500-
NORTHEAST NORTH DAKOTA

CITY           SKY/WX    TMP DP  RH WIND       PRES   REMARKS
GRAND FORKS    CLOUDY    58  50  75 SE10      30.18R
GRND FRKS AFB  CLOUDY    56  51  82 S8        30.18S
DEVILS LAKE    CLOUDY    60  47  61 SE14      30.14S
$$

NDZ022-023-025-028>030-036>039-047>053-010500-
SOUTHEAST NORTH DAKOTA

CITY           SKY/WX    TMP DP  RH WIND       PRES   REMARKS
FARGO          PTCLDY    58  48  69 SE8       30.19S
JAMESTOWN      CLOUDY    57  48  72 SE13      30.14R
$$





USA.gov is the U.S. government's official web portal to all federal, state and local government web resources and services.